Whitefield, NH

7:38 AM EST on December 12, 2017 (GMT -0500)
Mount Washington Regional

Weather History for KHIE - April, 2013

Change the Weather History Date:

Sunday, April 7, 2013

  Actual Average Record
Temperature  
Mean Temperature 38 °F -  
Max Temperature 55 °F 44 °F 63 °F (1997)
Min Temperature 23 °F 22 °F 1 °F (2003)
Degree Days  
Heating Degree Days 26    
Moisture  
Dew Point 20 °F    
Average Humidity 48    
Maximum Humidity 75    
Minimum Humidity 25    
Precipitation  
Precipitation 0.00 in - - ()
Sea Level Pressure  
Sea Level Pressure 30.05 in    
Wind  
Wind Speed 3 mph (SW)    
Max Wind Speed 13 mph    
Max Gust Speed 24 mph    
Visibility 10 miles    
Events      
Averages and records for this station are not official NWS values.
T = Trace of Precipitation, MM = Missing Value Source: NWS Daily Summary

Daily Weather History Graph

Daily Weather History Graph

Search for Another Location

Airport or City:

Trip Planner

Search our weather history database for the weather conditions in past years. The results will help you decide how hot, cold, wet, or windy it might be!

Date:

Astronomy

Apr. 07, 2013 Rise Set
Actual Time 6:16 AM EDT 7:21 PM EDT
Civil Twilight 5:46 AM EDT 7:50 PM EDT
Nautical Twilight 5:10 AM EDT 8:26 PM EDT
Astronomical Twilight 4:33 AM EDT 9:04 PM EDT
Moon 4:37 AM EDT (4/7) 4:45 PM EDT (4/7)
Length of Visible Light 14h 04m
Length of Day
13h 05m
Waning Crescent, 8% of the Moon is Illuminated
Apr 7
Waning Crescent
Apr 10
New
Apr 18
First Quarter
Apr 25
Full
May 2
Last Quarter

Hourly Weather History & Observations

Time (EDT) Temp. Windchill Dew Point Humidity Pressure Visibility Wind Dir Wind Speed Gust Speed Precip Events Conditions
12:52 AM 23.0 °F - 16.0 °F 74% 30.30 in 10.0 mi Calm Calm - N/A   Mostly Cloudy
1:52 AM 25.0 °F - 17.1 °F 72% 30.28 in 10.0 mi Calm Calm - N/A   Overcast
2:52 AM 25.0 °F - 16.0 °F 69% 30.25 in 10.0 mi Calm Calm - N/A   Overcast
3:52 AM 23.0 °F - 15.1 °F 72% 30.23 in 10.0 mi Calm Calm - N/A   Partly Cloudy
4:52 AM 24.1 °F 19.7 °F 17.1 °F 75% 30.21 in 10.0 mi West 3.5 mph - N/A   Overcast
5:52 AM 26.1 °F - 17.1 °F 69% 30.21 in 10.0 mi Calm Calm - N/A   Overcast
6:52 AM 27.0 °F - 18.0 °F 69% 30.24 in 10.0 mi Calm Calm - N/A   Overcast
7:52 AM 28.9 °F - 18.0 °F 64% 30.22 in 10.0 mi Calm Calm - N/A   Overcast
8:52 AM 33.1 °F 30.0 °F 19.0 °F 56% 30.19 in 10.0 mi WNW 3.5 mph - N/A   Overcast
9:52 AM 42.1 °F 37.7 °F 10.0 °F 27% 30.13 in 10.0 mi South 6.9 mph - N/A   Overcast
10:52 AM 46.0 °F 42.5 °F 15.1 °F 29% 30.09 in 10.0 mi SSW 6.9 mph - 0.00 in   Mostly Cloudy
12:52 PM 46.0 °F 43.1 °F 18.0 °F 33% 30.03 in 10.0 mi SSW 5.8 mph - N/A   Mostly Cloudy
1:52 PM 51.1 °F - 19.0 °F 28% 29.98 in 10.0 mi Variable 5.8 mph - N/A   Clear
2:52 PM 53.1 °F - 18.0 °F 25% 29.92 in 10.0 mi South 10.4 mph 23.0 mph N/A   Clear
3:52 PM 54.0 °F - 19.0 °F 25% 29.87 in 10.0 mi South 12.7 mph 24.2 mph N/A   Clear
4:52 PM 52.0 °F - 19.0 °F 27% 29.94 in 10.0 mi SW 11.5 mph 18.4 mph N/A   Overcast
5:52 PM 51.1 °F - 19.9 °F 29% 29.92 in 10.0 mi Calm Calm - N/A   Overcast
6:52 PM 52.0 °F - 24.1 °F 34% 29.88 in 10.0 mi South 6.9 mph - N/A   Clear
7:52 PM 45.0 °F - 26.1 °F 48% 29.88 in 10.0 mi Calm Calm - N/A   Scattered Clouds
8:52 PM 48.9 °F - 28.0 °F 44% 29.87 in 10.0 mi Variable 3.5 mph - N/A   Mostly Cloudy
9:52 PM 50.0 °F - 28.9 °F 44% 29.86 in 10.0 mi SW 4.6 mph - N/A   Mostly Cloudy
10:52 PM 51.1 °F - 30.0 °F 44% 29.86 in 10.0 mi WSW 3.5 mph - N/A   Overcast
11:52 PM 52.0 °F - 32.0 °F 47% 29.87 in 10.0 mi SW 9.2 mph - N/A   Overcast